Printer-friendly version

IAU Minor Planet Center

Minor Planet Center

MPEC 2006-N08 : 2006 NM

The following Minor Planet Electronic Circular may be linked-to from your own Web pages, but must not otherwise be redistributed electronically.


Read MPEC 2006-N07 Read MPEC 2006-N09


M.P.E.C. 2006-N08                                Issued 2006 July 6, 22:31 UT

     The Minor Planet Electronic Circulars contain information on unusual
         minor planets and routine data on comets.  They are published
   on behalf of Commission 20 of the International Astronomical Union by the
          Minor Planet Center, Smithsonian Astrophysical Observatory,
                          Cambridge, MA 02138, U.S.A.

                  Supported in part by the Brinson Foundation
                  Supported in part by the TABASGO Foundation
             Prepared using the Tamkin Foundation Computer Network

                              MPC@CFA.HARVARD.EDU
          URL http://cfa-www.harvard.edu/iau/mpc.html  ISSN 1523-6714

                                    2006 NM

Observations:
     K06N00M* C2006 07 03.50207 14 50 41.20 -37 40 25.0          16.0 V EN008E12
     K06N00M  C2006 07 03.51108 14 50 41.20 -37 40 06.3          15.9 V EN008E12
     K06N00M  C2006 07 03.52013 14 50 41.20 -37 39 47.1          15.9 V EN008E12
     K06N00M  C2006 07 03.57184 14 50 41.24 -37 37 58.4          15.9 V EN008E12
     K06N00M  C2006 07 03.58314 14 50 41.28 -37 37 34.3          15.9 V EN008E12
     K06N00M  C2006 07 03.59458 14 50 41.28 -37 37 10.3          15.8 V EN008E12
     K06N00M  C2006 07 03.60596 14 50 41.38 -37 36 46.1          15.9 V EN008E12
     K06N00M  C2006 07 03.63804 14 50 41.53 -37 35 37.9          15.9 V EN008E12
     K06N00M  C2006 07 03.63834 14 50 41.54 -37 35 36.6          15.8 V EN008E12
     K06N00M  C2006 07 03.63865 14 50 41.56 -37 35 36.6          15.9 V EN008E12
     K06N00M  C2006 07 03.96074 14 50 46.50 -37 24 47.0          15.8 R EN008I77
     K06N00M  C2006 07 03.96382 14 50 46.51 -37 24 41.4          16.1 R EN008I77
     K06N00M  C2006 07 03.96792 14 50 46.54 -37 24 33.0          15.9 R EN008I77
     K06N00M  C2006 07 04.34445 14 50 52.04 -37 11 24.9          15.9 V EN008E12
     K06N00M  C2006 07 04.34474 14 50 52.01 -37 11 24.2          16.0 V EN008E12
     K06N00M  C2006 07 04.34505 14 50 52.01 -37 11 23.6          16.0 V EN008E12
     K06N00M  C2006 07 04.34535 14 50 52.03 -37 11 23.3          16.0 V EN008E12
     K06N00M  C2006 07 04.45390 14 50 52.26 -37 07 36.6          16.0 R EN008423
     K06N00M  C2006 07 04.45691 14 50 52.29 -37 07 30.3          15.9 R EN008423
     K06N00M  C2006 07 04.46067 14 50 52.30 -37 07 22.3          15.8 R EN008423
     K06N00M  C2006 07 04.47422 14 50 52.35 -37 06 54.0          15.8 R EN008423
     K06N00M  C2006 07 04.47723 14 50 52.35 -37 06 47.3          16.0 R EN008423
     K06N00M  C2006 07 04.58058 14 50 53.01 -37 03 07.2          15.7 V EN008E12
     K06N00M  C2006 07 04.58839 14 50 53.05 -37 02 50.5          15.7 V EN008E12
     K06N00M  C2006 07 04.59616 14 50 53.12 -37 02 33.6          15.8 V EN008E12
     K06N00M  C2006 07 04.60391 14 50 53.19 -37 02 16.4          15.7 V EN008E12
     K06N00M 5C2006 07 05.16314 14 51 03.84 -36 43 06.8          17.2 R EN008673
     K06N00M 5C2006 07 05.16719 14 51 03.86 -36 42 58.1                 EN008673
     K06N00M 5C2006 07 05.17355 14 51 03.89 -36 42 44.6                 EN008673
     K06N00M 5C2006 07 05.18003 14 51 03.93 -36 42 31.2                 EN008673
     K06N00M  C2006 07 05.33588 14 51 07.75 -36 36 37.3          15.7 R EN008423
     K06N00M  C2006 07 05.35208 14 51 07.90 -36 36 03.2          16.0 R EN008423
     K06N00M  C2006 07 05.36829 14 51 08.05 -36 35 29.1          15.7 R EN008423
     K06N00M  C2006 07 05.38206 14 51 08.15 -36 35 00.0          16.0 R EN008423
     K06N00M  C2006 07 05.38389 14 51 08.24 -36 34 57.1          16.1 V EN008E12
     K06N00M  C2006 07 05.38786 14 51 08.28 -36 34 48.6          16.0 V EN008E12
     K06N00M  C2006 07 05.39191 14 51 08.28 -36 34 40.3          15.9 V EN008E12
     K06N00M  C2006 07 05.39581 14 51 08.31 -36 34 31.9          16.0 V EN008E12
     K06N00M  C2006 07 05.94889 14 51 19.40 -36 14 53.3          16.2 R EN008I77
     K06N00M  C2006 07 05.95147 14 51 19.44 -36 14 47.7          16.3 R EN008I77
     K06N00M  C2006 07 05.95301 14 51 19.47 -36 14 44.4          16.3 R EN008I77
     K06N00M  C2006 07 06.12053 14 51 22.97 -36 09 01.9          16.2 R EN008H36
     K06N00M  C2006 07 06.12829 14 51 22.97 -36 08 43.3                 EN008H36
     K06N00M  C2006 07 06.37774 14 51 29.56 -35 59 19.9          15.9 R EN008423
     K06N00M  C2006 07 06.38503 14 51 29.69 -35 59 04.2          16.0 R EN008423
     K06N00M  C2006 07 06.39395 14 51 29.78 -35 58 45.0          16.0 R EN008423
     K06N00M  C2006 07 06.40205 14 51 29.94 -35 58 27.4          16.2 R EN008423
     K06N00M  C2006 07 06.41258 14 51 30.05 -35 58 04.6          16.1 R EN008423
     K06N00M  C2006 07 06.47171 14 51 30.92 -35 55 56.2          16.0 V EN008E12
     K06N00M  C2006 07 06.47409 14 51 30.96 -35 55 51.0          15.8 V EN008E12
     K06N00M  C2006 07 06.47644 14 51 30.96 -35 55 46.6          15.7 V EN008E12
     K06N00M  C2006 07 06.47880 14 51 31.03 -35 55 41.0          15.9 V EN008E12
     K06N00M  C2006 07 06.52640 14 51 31.62 -35 53 56.1          15.7 R EN008E26
     K06N00M  C2006 07 06.53562 14 51 31.78 -35 53 35.4          15.6 R EN008E26
     K06N00M  C2006 07 06.61290 14 51 33.43 -35 50 40.7          15.8 V EN008E12
     K06N00M  C2006 07 06.61319 14 51 33.40 -35 50 40.0          15.8 V EN008E12
     K06N00M  C2006 07 06.61399 14 51 33.42 -35 50 39.2          15.6 V EN008E12
     K06N00M  C2006 07 06.61429 14 51 33.39 -35 50 38.4          15.8 V EN008E12

Observer details:
423 North Ryde.  Observer S. G. McAndrew.  0.20-m f/4 hyperbolic astrograph
    + CCD.
673 Table Mountain Observatory, Wrightwood.  Observer J. Young.  0.61-m f/16
    Cassegrain + CCD.
E12 Siding Spring Survey.  Observers R. H. McNaught, G. J. Garradd.  Measurers
    E. C. Beshore, E. J. Christensen, G. J. Garradd, A. R. Gibbs, A. D. Grauer,
    R. E. Hill, R. A. Kowalski, S. M. Larson, R. H. McNaught.  0.5-m Uppsala
    Schmidt + CCD.
E26 RAS Observatory, Biggera Waters.  Observers E. Guido, G. Sostero.
    Measurer E. Guido.  0.15-m f/6.0 reflector + CCD.  Long. and parallax
    153.3971, 0.88414, -0.46566.
H36 Sandlot Observatory, Scranton.  Observer G. Hug.  0.30-m
    Schmidt-Cassegrain + CCD.
I77 CEAMIG-REA Observatory, Belo Horizonte.  Observers C. Jacques, E. Pimentel.
    Measurer C. Jacques.  0.30-m f/3.0 Schmidt-Cassegrain + CCD.

Orbital elements:
2006 NM                                                  Earth MOID = 0.0921 AU
Epoch 2006 Mar. 6.0 TT = JDT 2453800.5                  MPC
M 322.67826              (2000.0)            P               Q
n   0.21563482     Peri.   29.93142     +0.78137237     +0.58199368
a   2.7541661      Node   292.75318     -0.61002383     +0.63616398
e   0.6110140      Incl.   14.13844     -0.13163642     +0.50653603
P   4.57           H   16.3           G   0.15           U   8
Residuals in seconds of arc
060703 E12  0.2-  0.1+    060704 423  0.4-  0.1+    060705 E12  0.1-  0.1+
060703 E12  0.1-  0.0     060704 423  0.2-  0.0     060705 E12  0.0   0.2+
060703 E12  0.0   0.2+    060704 423  0.2-  0.1+    060705 E12  0.4-  0.0
060703 E12  0.1-  0.1+    060704 423  0.2-  0.2-    060705 E12  0.4-  0.1+
060703 E12  0.0   0.2+    060704 423  0.3-  0.1+    060705 I77  0.3-  0.0
060703 E12  0.5-  0.0     060704 E12  0.0   0.1+    060705 I77  0.1-  0.0
060703 E12  0.1+  0.0     060704 E12  0.3-  0.1-    060705 I77  0.1+  0.0
060703 E12  0.3-  0.1-    060704 E12  0.3-  0.0     060706 H36  0.1+  1.6-
060703 E12  0.2-  0.6+    060704 E12  0.4-  0.4+    060706 H36  1.1-  0.1+
060703 E12  0.0   0.1-    060705 673  0.4+  0.5+    060706 423  0.5-  0.3+
060703 I77  0.5-  0.6+    060705 673  0.3+  0.6+    060706 423  0.1-  0.3+
060703 I77  0.4-  0.1-    060705 673  0.1+  0.6+    060706 423  0.5-  0.3+
060703 I77  0.0   0.2-    060705 673  0.0   0.2+    060706 423  0.1+  0.3+
060704 E12  0.1-  0.1+    060705 423  0.2-  0.2-    060706 423  0.3-  0.3+
060704 E12  0.5-  0.2+    060705 423  0.1-  0.0     060706 E26  0.1-  0.2+
060704 E12  0.5-  0.2+    060705 423  0.0   0.0     060706 E26  0.1-  0.2+
060704 E12  0.3-  0.1-    060705 423  0.1-  0.1+

Ephemeris:
2006 NM                  a,e,i = 2.75, 0.61, 14                  q = 1.0713
Date    TT    R. A. (2000) Decl.     Delta      r     Elong.  Phase     V
2006 07 04    14 50.78   -37 23.3    0.358    1.265   126.9    40.0    16.2
2006 07 14    14 57.16   -31 03.0    0.322    1.204   118.6    47.8    16.0
2006 07 24    15 12.33   -23 28.8    0.291    1.153   111.0    55.4    15.9
2006 08 03    15 35.99   -14 32.8    0.265    1.112   104.7    62.0    15.9
2006 08 13    16 07.64   -04 12.1    0.247    1.085   100.2    66.8    15.8
2006 08 23    16 46.84   +07 04.5    0.239    1.072    98.2    69.0    15.8
2006 09 02    17 33.26   +18 00.9    0.244    1.075    99.2    67.9    15.8
2006 09 12    18 25.67   +27 04.7    0.261    1.094   102.6    63.9    15.8
2006 09 22    19 21.56   +33 13.4    0.290    1.126   107.6    58.2    16.0
2006 10 02    20 17.38   +36 21.8    0.331    1.171   113.2    51.8    16.2
2006 10 12    21 09.39   +37 04.9    0.382    1.227   118.4    45.7    16.4
2006 10 22    21 55.41   +36 10.2    0.444    1.290   122.5    40.6    16.7
2006 11 01    22 35.23   +34 24.3    0.520    1.359   125.0    36.8    17.0
2006 11 11    23 09.59   +32 22.6    0.610    1.433   125.5    34.2    17.4
2006 11 21    23 39.61   +30 26.1    0.714    1.510   124.1    32.8    17.8
2006 12 01    00 06.43   +28 47.2    0.834    1.588   121.3    32.0    18.3
2006 12 11    00 30.87   +27 30.0    0.967    1.668   117.4    31.6    18.7
2006 12 21    00 53.58   +26 34.1    1.114    1.748   112.6    31.3    19.1
2006 12 31    01 15.08   +25 57.7    1.273    1.828   107.5    30.9    19.5
2007 01 10    01 35.68   +25 37.4    1.443    1.907   102.0    30.3    19.8
2007 01 20    01 55.62   +25 29.7    1.620    1.986    96.3    29.5    20.1
2007 01 30    02 15.09   +25 31.7    1.805    2.063    90.5    28.5    20.4
2007 02 09    02 34.19   +25 40.5    1.993    2.140    84.6    27.3    20.7
2007 02 19    02 53.02   +25 53.5    2.185    2.215    78.7    26.0    20.9
2007 03 01    03 11.63   +26 08.8    2.376    2.289    72.8    24.4    21.1
2007 03 11    03 30.04   +26 24.6    2.567    2.361    66.9    22.8    21.3
2007 03 21    03 48.26   +26 39.5    2.753    2.432    61.0    21.0    21.5

Kyle E. Smalley              (C) Copyright 2006 MPC           M.P.E.C. 2006-N08

Read MPEC 2006-N07 Read MPEC 2006-N09


Our Web policy. Index to the CBAT/MPC/ICQ pages.


Valid HTML 4.01!